TimeCST,TemperatureF,Dew PointF,Humidity,Sea Level PressureIn,VisibilityMPH,Wind Direction,Wind SpeedMPH,Gust SpeedMPH,PrecipitationIn,Events,Conditions,WindDirDegrees,DateUTC
12:15 AM,16.2,14.4,93,30.33,10.0,WSW,5.8,-,N/A,,Clear,240,2013-01-04 06:15:00
12:35 AM,15.3,13.5,93,30.32,10.0,SW,5.8,-,N/A,,Clear,230,2013-01-04 06:35:00
12:55 AM,14.9,13.1,93,30.31,10.0,WSW,6.9,-,N/A,,Clear,240,2013-01-04 06:55:00
1:15 AM,14.9,13.1,93,30.31,10.0,WSW,4.6,-,N/A,,Clear,240,2013-01-04 07:15:00
1:35 AM,14.2,12.2,92,30.30,10.0,SW,6.9,-,N/A,,Clear,220,2013-01-04 07:35:00
1:55 AM,16.2,14.5,93,30.29,10.0,SW,8.1,-,N/A,,Clear,220,2013-01-04 07:55:00
2:15 AM,16.7,15.1,93,30.29,10.0,WSW,6.9,-,N/A,,Clear,250,2013-01-04 08:15:00
2:35 AM,16.5,14.7,93,30.29,10.0,WSW,5.8,-,N/A,,Clear,240,2013-01-04 08:35:00
2:55 AM,16.7,14.9,93,30.29,10.0,WSW,6.9,-,N/A,,Clear,240,2013-01-04 08:55:00
3:15 AM,15.4,13.5,92,30.29,10.0,WSW,6.9,-,N/A,,Clear,240,2013-01-04 09:15:00
5:55 AM,13.5,10.8,89,30.25,10.0,WSW,4.6,-,N/A,,Clear,240,2013-01-04 11:55:00
6:15 AM,12.7,10.0,89,30.25,10.0,SW,3.5,-,N/A,,Clear,230,2013-01-04 12:15:00
6:35 AM,12.2,9.5,89,30.26,10.0,SW,5.8,-,N/A,,Clear,230,2013-01-04 12:35:00
6:55 AM,11.3,8.6,89,30.25,10.0,WSW,4.6,-,N/A,,Clear,250,2013-01-04 12:55:00
7:15 AM,10.2,7.3,88,30.25,10.0,Calm,Calm,-,N/A,,Clear,0,2013-01-04 13:15:00
7:35 AM,10.4,7.7,89,30.25,10.0,Calm,Calm,-,N/A,,Clear,0,2013-01-04 13:35:00
7:55 AM,10.2,7.7,90,30.25,10.0,Calm,Calm,-,N/A,,Clear,0,2013-01-04 13:55:00
8:15 AM,10.8,7.7,87,30.25,10.0,SW,3.5,-,N/A,,Clear,230,2013-01-04 14:15:00
8:35 AM,10.8,8.1,89,30.25,10.0,SW,4.6,-,N/A,,Clear,230,2013-01-04 14:35:00
8:55 AM,12.7,9.7,88,30.25,10.0,SW,8.1,-,N/A,,Clear,220,2013-01-04 14:55:00
9:15 AM,13.8,10.8,88,30.25,10.0,WSW,6.9,-,N/A,,Clear,240,2013-01-04 15:15:00
9:35 AM,14.7,10.9,85,30.26,10.0,WSW,8.1,-,N/A,,Clear,240,2013-01-04 15:35:00
9:55 AM,15.4,11.3,84,30.27,10.0,WSW,6.9,-,N/A,,Clear,250,2013-01-04 15:55:00
10:15 AM,17.1,12.0,81,30.27,10.0,WSW,6.9,-,N/A,,Clear,250,2013-01-04 16:15:00
10:35 AM,18.1,12.7,79,30.27,10.0,WSW,4.6,-,N/A,,Clear,240,2013-01-04 16:35:00
10:55 AM,19.2,13.3,78,30.27,10.0,WSW,8.1,-,N/A,,Clear,240,2013-01-04 16:55:00
11:15 AM,19.8,13.3,76,30.26,10.0,SW,6.9,-,N/A,,Clear,230,2013-01-04 17:15:00
11:35 AM,20.8,14.0,75,30.26,10.0,WSW,4.6,-,N/A,,Clear,240,2013-01-04 17:35:00
11:55 AM,22.1,14.5,73,30.25,10.0,WSW,4.6,-,N/A,,Clear,240,2013-01-04 17:55:00
12:15 PM,23.0,15.3,72,30.24,10.0,SW,4.6,-,N/A,,Clear,230,2013-01-04 18:15:00
12:35 PM,23.4,16.2,74,30.24,10.0,SSW,5.8,-,N/A,,Clear,210,2013-01-04 18:35:00
12:55 PM,23.9,16.3,73,30.22,10.0,SSW,4.6,-,N/A,,Clear,210,2013-01-04 18:55:00
1:15 PM,23.5,15.8,72,30.22,10.0,SSW,5.8,-,N/A,,Clear,210,2013-01-04 19:15:00
1:35 PM,24.1,16.0,71,30.21,10.0,SW,6.9,-,N/A,,Clear,220,2013-01-04 19:35:00
1:55 PM,24.6,16.2,70,30.19,10.0,WSW,3.5,-,N/A,,Clear,240,2013-01-04 19:55:00
2:15 PM,25.3,16.5,69,30.19,10.0,SSW,4.6,-,N/A,,Clear,210,2013-01-04 20:15:00
2:35 PM,26.1,17.4,70,30.18,10.0,SSW,4.6,-,N/A,,Clear,210,2013-01-04 20:35:00
2:55 PM,26.6,17.6,69,30.18,10.0,SSW,4.6,-,N/A,,Clear,200,2013-01-04 20:55:00
3:15 PM,26.6,18.3,71,30.18,10.0,SSW,8.1,-,N/A,,Clear,200,2013-01-04 21:15:00
3:35 PM,26.6,17.1,67,30.18,10.0,SSW,8.1,-,N/A,,Clear,200,2013-01-04 21:35:00
3:55 PM,26.6,16.7,66,30.18,10.0,SSW,5.8,-,N/A,,Clear,200,2013-01-04 21:55:00
4:15 PM,26.1,15.8,65,30.19,10.0,SSW,9.2,-,N/A,,Clear,200,2013-01-04 22:15:00
4:35 PM,25.0,16.2,69,30.19,10.0,South,8.1,-,N/A,,Clear,190,2013-01-04 22:35:00
4:55 PM,24.3,15.6,70,30.18,10.0,SSW,5.8,-,N/A,,Clear,200,2013-01-04 22:55:00
5:35 PM,21.7,14.0,72,30.18,10.0,South,4.6,-,N/A,,Clear,190,2013-01-04 23:35:00
5:55 PM,21.2,13.6,73,30.18,10.0,Calm,Calm,-,N/A,,Clear,0,2013-01-04 23:55:00
6:15 PM,20.1,13.1,74,30.19,10.0,Calm,Calm,-,N/A,,Clear,0,2013-01-05 00:15:00
6:35 PM,19.4,12.9,76,30.19,10.0,Calm,Calm,-,N/A,,Clear,0,2013-01-05 00:35:00
6:55 PM,19.0,13.1,78,30.18,10.0,Calm,Calm,-,N/A,,Clear,0,2013-01-05 00:55:00
7:15 PM,18.3,12.9,79,30.18,10.0,Calm,Calm,-,N/A,,Clear,0,2013-01-05 01:15:00
7:35 PM,17.1,12.0,81,30.17,10.0,Calm,Calm,-,N/A,,Clear,0,2013-01-05 01:35:00
7:55 PM,14.9,11.1,85,30.17,10.0,Calm,Calm,-,N/A,,Clear,0,2013-01-05 01:55:00
8:15 PM,14.7,11.3,86,30.17,10.0,Calm,Calm,-,N/A,,Clear,0,2013-01-05 02:15:00
8:35 PM,12.4,9.3,88,30.16,10.0,Calm,Calm,-,N/A,,Clear,0,2013-01-05 02:35:00
8:55 PM,12.2,9.5,89,30.15,10.0,Calm,Calm,-,N/A,,Clear,0,2013-01-05 02:55:00
9:15 PM,13.6,10.9,89,30.15,10.0,Calm,Calm,-,N/A,,Clear,0,2013-01-05 03:15:00
9:35 PM,13.3,10.2,88,30.15,10.0,Calm,Calm,-,N/A,,Clear,0,2013-01-05 03:35:00
9:55 PM,14.9,12.0,88,30.15,10.0,Calm,Calm,-,N/A,,Clear,0,2013-01-05 03:55:00
10:15 PM,12.2,8.4,85,30.14,10.0,Calm,Calm,-,N/A,,Clear,0,2013-01-05 04:15:00
10:35 PM,14.7,12.6,91,30.14,10.0,Calm,Calm,-,N/A,,Clear,0,2013-01-05 04:35:00
10:55 PM,13.1,10.2,88,30.14,10.0,Calm,Calm,-,N/A,,Clear,0,2013-01-05 04:55:00
11:15 PM,13.8,11.3,90,30.14,10.0,Calm,Calm,-,N/A,,Clear,0,2013-01-05 05:15:00
11:35 PM,13.1,10.2,88,30.14,10.0,Calm,Calm,-,N/A,,Clear,0,2013-01-05 05:35:00
11:55 PM,15.3,13.6,93,30.13,10.0,SSW,3.5,-,N/A,,Clear,210,2013-01-05 05:55:00